{"data":{"norad_id":67699,"epoch":"2026-05-24T19:23:31.121376Z","epoch_age_seconds":91501,"freshness":"FRESH","line1":"1 67699U 26025G   26144.80799909  .00014860  00000+0  46164-3 0  9992","line2":"2 67699  97.2839 256.3618 0000911  90.5559 269.5788 15.33449748 17687","mean_motion":15.33449748,"eccentricity":9.11e-5,"inclination_deg":97.2839,"raan_deg":256.3618,"arg_perigee_deg":90.5559,"mean_anomaly_deg":269.5788,"bstar":0.00046164,"rev_number":1768,"period_min":93.905913896306,"perigee_km":464.90558983013,"apogee_km":466.15250578404,"semimajor_km":6843.6660478071,"source":"CELESTRAK","updated_at":"2026-05-25T13:38:21.663835Z"}}